Saint-Jovite, Quebec

6:09 AM EDT on August 31, 2015 (GMT -0400)
Les Suites De La Gare #858 Mont-Tremblant | | Change Station
CLOSE
Current Station
Personal Weather Station
Location: Mont-Tremblant, QUéBEC
Elevation: 705 ft
Nearby Weather Stations

Elev 705 ft 46.13 °N, 74.59 °W | Updated 8 minutes ago

Mostly Cloudy
Mostly Cloudy
57.0 °F
Feels Like 57.0 °F
N
0.0
Wind Variable Wind from North

Today is forecast to be nearly the same temperature as yesterday.

Today
High -- | Low -- °F
--% Chance of Precip.
Yesterday
High -- | Low -- °F
Precip. -- in
6:17 AM 7:38 PM
Waning Gibbous, 96% visible
Pressure 29.91 in
Visibility 6.0 miles
Clouds Mostly Cloudy 400 ft
Mostly Cloudy 3500 ft
Dew Point 57 °F
Humidity 99%
Rainfall Not available.
Snow Depth Not available.
UV 0 out of 12
Pollen Not available.
Air Quality Not available.
Flu Activity Not available.
METAR CYMX 310916Z 23003KT 190V280 6SM BR BKN004 BKN035 17/16 A2990 RMK SF6SC1 SLP126 DENSITY ALT 500FT
Pressure 29.91 in
Visibility 6.0 miles
Clouds Mostly Cloudy 400 ft
Mostly Cloudy 3500 ft
Dew Point 57 °F
Humidity 99%
Rainfall Not available.
Snow Depth Not available.
UV 0 out of 12
Pollen Not available.
Air Quality Not available.
Flu Activity Not available.
METAR CYMX 310916Z 23003KT 190V280 6SM BR BKN004 BKN035 17/16 A2990 RMK SF6SC1 SLP126 DENSITY ALT 500FT

10-Day Weather Forecast

×

Almanac

Astronomy

Aug. 31, 2015 Rise Set
Actual Time
Civil Twilight
Nautical Twilight
Astronomical Twilight
Moon
Length of Visible Light
Length of Day
Tomorrow will be .
, % of the Moon is Illuminated

Today's Extremes

Country Highs Country Lows

Community

WunderPhotos

Upload Photos

1,851,229 photos uploaded!

WunderBlogs® & News

Nearby

Air Quality

  Air Quality AQ Index Pollutant
Not available.

Snow Depth

Station Depth Elevation

Earthquake Activity

City Distance Mag. Time & Date
Minimum magnitude displayed is 2.5.

Coastal Water Temperatures

Place Temperature

Stations

Nearby Weather Stations

Station Location Temp. Windchill Dew Point Humidity Wind Precip. Elev Updated Type